This is the latest recevied weather packets stored in our database for station/object EA7BW-10. If no packets are shown the sender has not sent any weather packets the latest 10 day(s).
| Time | Temp. | Humidity | Pressure | Rain* | Wind** | Luminosity | Snow |
|---|---|---|---|---|---|---|---|
| 1777590184 | 17.22° C | 50% | 1012.3 hPa | - | - | - | - |
| 1777588984 | 17.22° C | 50% | 1012.3 hPa | - | - | - | - |
| 1777587783 | 17.78° C | 49% | 1012.1 hPa | - | - | - | - |
| 1777586583 | 18.33° C | 48% | 1012.2 hPa | - | - | - | - |
| 1777585383 | 18.89° C | 48% | 1012 hPa | - | - | - | - |
| 1777584183 | 19.44° C | 47% | 1011.8 hPa | - | - | - | - |
| 1777582983 | 19.44° C | 47% | 1011.4 hPa | - | - | - | - |
| 1777581783 | 20° C | 46% | 1011 hPa | - | - | - | - |
| 1777580583 | 20.56° C | 46% | 1010.6 hPa | - | - | - | - |
| 1777579383 | 21.67° C | 44% | 1010.2 hPa | - | - | - | - |
| 1777578183 | 22.78° C | 44% | 1009.7 hPa | - | - | - | - |
| 1777576983 | 23.89° C | 43% | 1009.6 hPa | - | - | - | - |
| 1777575782 | 25° C | 42% | 1009.3 hPa | - | - | - | - |
| 1777574582 | 26.67° C | 41% | 1009.3 hPa | - | - | - | - |
| 1777573382 | 27.22° C | 40% | 1009.2 hPa | - | - | - | - |
| 1777572182 | 27.78° C | 39% | 1009.2 hPa | - | - | - | - |
| 1777570982 | 28.33° C | 39% | 1009.2 hPa | - | - | - | - |
| 1777569782 | 28.89° C | 38% | 1009.3 hPa | - | - | - | - |
| 1777568582 | 29.44° C | 38% | 1009.2 hPa | - | - | - | - |
| 1777567382 | 30.56° C | 37% | 1009.2 hPa | - | - | - | - |
| 1777566182 | 30° C | 38% | 1009.3 hPa | - | - | - | - |
| 1777564982 | 30.56° C | 38% | 1009.3 hPa | - | - | - | - |
| 1777563781 | 31.11° C | 38% | 1009.2 hPa | - | - | - | - |
| 1777562581 | 30.56° C | 39% | 1009.4 hPa | - | - | - | - |
| 1777561381 | 31.67° C | 38% | 1009.4 hPa | - | - | - | - |
* Rain since midnight (hover to see other rain measurements)
** Current wind speed in m/s (hover to see current wind gust speed)